Temperature
30 31 31 31 31 31 31 31 30 30 30 30 30 29 29 28 27 27 26 25 25 23 22 21 21 20 20 19 19 19 19 18 18 18 18 18 18 18 18 18 18 18 18 18
30 31 31 31 31 31 31 31 31 30 30 30 29 29 29 28 27 27 26 26 25 24 22 21 20 20 20 19 19 19 19 19 19 18 18 18 18 18 18 17 18 17 18 18
31 32 31 31 31 31 31 31 31 30 30 30 30 29 29 28 27 26 26 25 25 24 23 22 21 20 20 19 19 19 19 19 19 18 18 18 18 18 18 17 17 17 18 18
31 31 31 31 31 31 31 31 31 30 30 31 30 30 29 29 28 27 26 26 25 24 23 22 21 21 20 20 19 19 19 19 19 18 18 18 18 18 18 17 17 17 17 17
31 31 31 31 31 31 31 31 31 31 31 31 30 30 30 29 28 28 27 26 25 24 23 22 22 21 20 20 19 19 19 19 19 18 18 18 18 18 17 17 17 17 17 17
31 32 31 31 31 31 31 31 30 31 31 30 30 30 30 30 29 28 27 26 25 24 23 22 22 21 20 20 19 19 19 19 19 19 18 18 18 17 17 17 17 17 17 17
31 31 31 31 31 31 31 31 30 30 30 30 30 30 30 29 29 28 27 26 25 24 23 22 22 21 20 20 19 19 18 18 18 18 18 18 18 18 17 17 17 17 17 17
30 31 31 31 31 31 31 31 30 29 30 30 30 30 30 28 27 27 26 25 24 24 23 22 21 21 20 20 20 19 18 18 18 18 18 18 18 17 17 17 17 17 17 17
31 31 31 31 31 31 31 31 32 31 30 30 30 30 29 28 27 27 26 25 24 24 23 23 22 21 21 20 20 19 18 18 18 18 18 18 17 17 17 17 17 16 16 16
31 30 31 31 31 30 31 31 31 30 29 29 30 30 30 28 27 27 26 26 25 24 23 23 22 21 21 20 20 19 18 18 18 18 18 17 17 17 17 17 17 16 16 16
31 30 31 31 30 30 30 30 30 30 30 29 29 30 30 28 28 27 26 25 24 24 23 22 22 21 21 20 20 19 18 18 18 18 17 17 17 17 17 16 16 16 16 16
30 31 30 31 31 30 31 30 30 29 29 29 29 29 29 29 28 27 26 25 24 23 23 22 21 21 20 20 19 19 18 18 18 17 17 17 17 17 16 16 16 16 16 15
30 30 29 30 30 30 30 30 30 30 30 29 29 29 28 28 28 27 25 24 23 22 22 21 21 20 20 19 19 18 18 18 18 17 17 17 17 16 16 16 16 15 15 15
28 30 29 29 30 30 30 30 29 30 29 29 29 29 28 28 27 26 25 24 23 22 22 21 20 20 19 18 18 18 18 18 17 17 17 17 16 16 16 16 15 15 15 15
29 29 29 30 30 30 30 30 29 29 29 29 29 29 29 28 27 26 25 24 23 22 21 21 20 19 18 18 18 18 17 17 17 17 17 16 16 16 16 15 15 15 15 15
28 28 29 29 29 29 29 29 29 29 29 29 29 29 28 27 26 25 24 23 22 22 21 20 19 18 18 18 17 17 17 17 17 16 16 16 15 15 15 15 15 15 14 14
28 27 27 28 29 28 28 29 29 29 29 29 28 28 27 26 25 24 23 22 22 21 20 19 19 18 18 18 17 17 17 17 16 16 16 15 15 15 15 15 15 14 14 14
26 26 27 28 27 26 29 29 29 28 28 28 28 27 26 25 24 23 22 22 21 21 20 19 19 18 18 18 17 17 17 16 16 16 15 15 15 15 14 14 14 14 14 14
27 26 27 27 27 28 28 28 28 27 27 27 27 26 25 24 24 23 22 21 21 20 19 19 18 18 18 17 17 17 17 16 16 15 15 15 14 14 14 14 14 13 13 13
26 25 26 26 26 26 27 27 26 27 26 26 25 25 24 24 25 24 21 20 20 19 19 18 18 17 17 17 17 16 16 16 15 15 15 15 14 14 14 13 13 13 13 13
25 25 26 26 26 27 26 25 26 25 25 24 24 24 23 23 23 21 20 19 19 18 18 17 17 17 16 16 16 16 16 16 15 15 15 14 14 14 13 13 13 13 13 12
25 25 25 25 25 26 25 25 25 24 22 22 22 22 22 21 21 20 19 19 18 18 17 17 17 16 16 16 16 15 15 15 15 14 14 14 14 13 13 13 13 12 12 12
25 25 25 25 25 23 23 23 22 22 22 21 21 21 20 20 20 19 19 18 18 17 17 17 16 16 16 15 15 15 15 15 14 14 14 14 13 13 13 13 12 12 12 12
23 22 23 23 24 23 22 21 21 21 21 20 20 20 20 19 19 19 18 18 17 17 16 16 16 16 16 15 15 15 15 14 14 14 14 13 13 13 13 12 12 12 12 12
22 22 22 22 22 22 21 20 20 20 19 19 19 19 19 19 19 18 18 17 17 16 16 16 15 15 15 15 15 14 14 14 14 14 13 13 13 13 12 12 12 12 12 12
22 22 22 22 21 21 21 20 19 19 19 18 18 18 18 18 18 17 17 16 16 16 15 15 15 14 15 15 14 14 14 14 14 13 13 13 13 12 12 12 12 12 12 12
Wind_Speed
5 6 4 3 4 5 4 3 2 1 1 2 3 2 2 4 4 4 5 5 4 4 4 4 4 4 4 3 3 3 3 3 2 1 1 1 0 1 1 1 2 2 1 1
7 6 3 3 4 6 5 4 1 1 1 2 2 2 2 4 4 3 4 5 5 5 5 4 4 4 4 4 4 4 3 3 3 2 1 1 0 0 1 1 2 2 1 1
9 3 2 4 5 5 5 4 3 2 1 4 3 3 4 5 4 4 4 4 5 5 6 6 5 4 4 4 4 3 3 3 2 2 2 1 1 1 0 1 1 2 2 1
7 3 4 6 5 6 4 2 3 4 5 3 4 3 3 6 5 4 5 5 5 5 5 6 6 5 4 4 4 4 3 2 2 2 2 1 0 0 1 1 1 1 1 1
5 4 5 6 4 5 3 1 4 6 7 5 4 5 2 5 4 4 5 5 5 5 6 6 6 5 5 4 4 4 4 3 2 2 2 2 1 1 0 0 1 1 1 1
7 5 5 4 2 3 2 4 5 7 7 6 4 5 2 2 1 2 4 5 5 6 6 6 6 5 5 5 5 4 4 3 3 2 2 1 1 1 1 1 0 1 0 0
7 7 5 4 5 5 6 7 5 5 5 3 1 4 1 3 2 2 3 4 6 6 6 6 6 6 5 5 5 4 4 3 3 2 2 2 1 1 1 1 1 2 1 1
7 7 6 4 5 5 6 8 7 6 6 3 2 3 2 3 3 3 3 5 6 7 7 6 6 5 5 5 5 5 4 4 3 3 2 2 2 1 0 1 1 1 2 2
6 4 4 2 3 5 6 6 7 8 8 7 3 2 3 4 4 4 5 6 6 6 6 6 6 5 5 5 5 5 4 3 3 2 3 2 1 1 1 1 1 1 2 2
6 6 5 4 4 3 5 5 5 7 6 7 4 4 1 4 4 4 5 5 6 6 6 5 5 5 4 5 5 4 4 4 3 2 2 2 1 1 0 1 1 2 2 2
8 7 6 6 6 5 5 6 5 6 6 8 7 2 3 3 4 5 5 5 5 5 5 5 4 4 5 5 5 5 4 3 3 2 2 2 1 1 0 0 1 1 2 2
6 7 7 6 4 4 6 6 6 7 6 7 8 3 4 2 3 5 5 5 5 5 5 5 5 4 4 4 4 4 3 3 3 3 2 2 2 1 0 0 1 1 1 1
4 6 8 7 7 7 6 6 8 8 8 8 9 3 5 4 4 4 5 5 6 5 5 5 4 4 4 4 3 3 3 3 2 3 3 2 2 1 1 1 1 1 1 1
4 8 9 10 7 4 7 7 8 9 8 9 8 6 2 3 4 4 5 5 6 6 5 5 4 4 4 3 3 3 3 3 3 3 3 2 2 2 1 1 1 1 1 1
5 9 10 10 8 8 9 9 9 10 10 10 9 8 4 3 3 4 5 5 5 5 5 4 4 4 3 3 3 3 3 2 2 2 2 2 2 1 1 1 1 1 1 1
4 8 9 11 10 10 12 11 11 11 10 10 10 7 1 1 2 3 4 5 6 5 5 4 4 4 3 3 2 2 3 2 2 2 1 1 1 1 1 1 1 1 1 1
6 7 9 12 10 10 13 11 10 10 9 9 9 4 1 2 2 3 4 6 6 5 5 4 4 4 3 3 3 3 2 3 2 2 1 1 1 1 0 1 1 1 1 1
7 8 8 10 9 13 6 1 5 7 7 6 5 2 2 2 3 3 4 5 5 4 4 4 3 3 2 2 3 2 3 3 2 2 1 1 1 0 0 0 1 1 1 2
8 7 8 9 12 12 6 3 3 5 6 3 3 3 3 3 4 3 3 3 3 4 4 3 3 2 2 2 3 3 2 2 2 2 1 0 0 0 0 0 1 1 1 1
7 8 9 10 12 11 3 1 1 5 6 1 2 2 3 4 5 2 2 2 2 3 3 3 3 2 2 3 3 3 3 2 2 1 1 1 1 1 1 1 1 1 1 2
8 8 11 12 12 8 1 0 3 7 2 2 0 1 3 2 2 2 2 2 2 2 3 3 3 3 2 2 3 3 3 2 2 2 1 1 1 1 1 0 1 1 1 1
9 9 10 10 12 7 3 1 2 3 3 1 1 1 1 1 2 3 3 2 2 2 3 3 3 2 2 3 3 3 3 2 2 2 2 1 1 1 0 0 1 1 1 1
7 6 6 5 3 3 2 1 2 2 1 1 1 1 1 1 2 2 2 1 2 2 3 3 2 2 2 2 3 3 2 2 2 2 2 2 1 1 1 1 1 1 2 2
4 2 4 4 3 1 0 1 2 2 2 1 1 1 0 1 1 1 1 1 2 2 3 3 2 2 2 2 3 3 3 3 3 3 2 2 2 1 1 1 1 2 2 2
3 3 5 6 4 3 2 0 1 1 1 1 1 1 0 0 1 1 1 1 2 2 3 3 3 2 2 2 3 3 3 3 3 3 2 2 2 1 1 1 1 1 2 2
6 6 6 5 2 4 3 1 1 0 1 1 1 1 1 0 1 1 1 1 2 2 2 3 3 2 2 2 2 3 4 4 4 3 2 2 1 1 1 1 1 2 1 1
Wind_Direction
217 237 246 266 270 294 293 292 319 36 109 241 226 217 181 173 190 191 185 176 170 154 135 131 135 133 131 132 133 137 139 137 154 165 195 182 111 37 45 52 40 27 10 11
223 230 262 277 245 252 256 266 275 132 135 249 233 233 187 179 192 200 192 181 176 160 142 138 143 145 140 136 140 148 158 156 176 179 205 213 222 340 57 38 50 25 17 359
242 266 251 240 239 247 253 269 274 277 215 209 237 216 184 171 180 181 188 185 176 169 164 159 158 157 152 150 153 153 161 164 184 192 193 182 174 208 125 65 63 32 19 33
242 242 250 248 247 260 260 286 260 245 252 248 257 275 173 172 177 183 187 184 181 174 170 167 165 164 164 162 153 146 146 158 172 186 201 205 235 316 355 351 53 53 30 20
230 232 248 254 258 263 296 291 249 250 261 267 245 272 157 169 191 187 190 186 181 177 171 167 165 162 164 159 153 149 148 146 154 186 195 220 245 271 305 46 80 356 40 16
249 240 250 261 257 237 202 220 226 235 250 258 261 271 259 164 196 168 168 172 177 173 169 166 160 156 160 159 158 155 153 154 155 163 169 200 268 298 337 360 335 269 276 36
221 213 205 221 227 200 229 258 258 246 241 264 158 269 333 83 104 152 164 162 168 169 167 163 160 162 162 163 164 161 155 159 162 167 177 194 222 223 246 292 309 297 313 344
223 209 193 210 248 256 249 269 279 290 296 301 211 267 77 101 110 123 143 149 157 162 164 164 164 169 172 172 172 166 162 167 172 176 181 196 226 239 268 312 318 319 327 349
239 220 171 197 249 258 250 256 285 283 281 284 271 210 146 139 143 141 140 147 153 158 162 164 165 171 173 170 168 167 162 168 179 185 180 183 193 264 311 299 288 315 327 329
248 249 215 190 200 209 274 280 263 273 286 283 270 250 225 167 172 158 154 152 151 155 158 158 163 167 165 161 154 158 159 164 169 169 167 149 154 163 223 284 344 339 335 340
248 247 222 210 228 248 224 235 259 274 286 289 290 321 70 164 178 176 164 155 154 157 155 150 153 154 152 152 150 152 154 157 157 145 146 145 148 155 157 333 330 334 340 344
234 250 250 232 213 241 256 262 257 269 273 276 287 301 92 144 169 168 162 152 151 152 151 145 140 138 140 141 140 139 147 148 145 144 144 146 148 155 165 3 309 340 358 356
215 244 248 235 211 201 231 245 258 267 269 271 279 287 119 137 156 163 161 155 155 155 152 147 140 134 133 132 130 135 139 137 151 152 158 154 158 169 209 253 263 289 313 344
243 248 257 270 286 263 248 242 244 257 266 274 279 291 205 193 192 183 173 168 166 162 164 154 145 139 127 126 134 143 141 141 150 160 168 167 175 192 215 220 235 245 253 266
243 252 258 270 275 265 261 256 242 252 271 282 292 291 268 235 219 199 187 175 168 169 168 153 146 135 134 127 136 149 145 144 148 161 160 167 174 189 212 220 232 242 250 253
252 260 260 259 259 256 258 255 249 248 260 272 279 283 294 198 194 191 188 181 177 173 167 158 146 142 141 141 150 149 145 147 149 145 142 152 172 199 207 224 227 225 247 285
241 247 258 260 256 255 253 250 253 256 256 268 278 289 190 213 191 197 198 189 183 175 167 161 153 149 148 149 152 156 146 143 147 157 157 171 193 199 221 238 205 208 227 254
240 247 251 259 253 252 263 300 266 266 263 267 275 250 217 213 193 191 192 187 187 182 176 171 169 159 153 146 144 151 150 151 155 157 152 168 184 190 194 239 246 228 235 252
228 233 248 253 251 253 240 232 248 259 258 275 257 211 194 182 183 185 175 176 183 189 186 178 178 173 162 155 152 155 151 140 143 135 139 157 192 183 194 247 257 261 258 266
207 221 242 246 257 260 260 117 280 262 240 188 232 205 190 207 233 193 135 151 161 164 170 172 169 164 164 172 161 164 161 149 150 149 154 149 171 199 238 262 267 273 265 268
208 219 235 244 251 254 28 32 232 247 301 67 253 195 198 212 326 103 140 132 135 147 160 162 167 169 176 177 173 183 174 172 171 159 157 161 177 218 224 231 272 273 277 294
235 234 232 242 247 246 58 183 258 2 38 62 74 123 154 115 87 125 137 135 152 156 167 165 165 171 171 171 180 186 183 177 169 167 169 184 212 228 190 212 251 266 283 269
240 262 260 253 267 62 55 27 33 35 77 78 88 105 155 168 149 142 142 152 168 181 180 175 167 177 183 181 181 193 191 180 176 176 177 189 212 222 212 233 249 255 260 275
221 263 255 250 227 249 42 67 49 39 44 58 84 84 184 191 179 171 182 194 194 193 193 180 179 200 201 202 197 191 178 179 181 180 183 185 198 209 196 254 265 286 298 303
260 238 246 247 251 250 216 306 18 44 43 62 66 14 340 223 232 238 232 227 222 208 200 191 197 208 207 214 205 182 168 177 182 182 186 194 199 189 212 254 307 291 326 327
242 248 255 263 270 271 265 278 323 36 307 316 323 325 327 272 232 235 240 256 245 221 208 205 205 212 211 216 192 176 174 181 186 192 198 213 216 195 232 233 301 25 331 93
Height
1501 1498 1496 1493 1493 1493 1493 1495 1496 1495 1493 1495 1496 1498 1499 1503 1505 1506 1508 1510 1513 1515 1517 1517 1518 1518 1519 1519 1519 1520 1520 1521 1521 1522 1522 1522 1522 1522 1522 1522 1521 1520 1520 1520
1498 1496 1492 1492 1493 1493 1493 1495 1495 1494 1493 1495 1496 1497 1497 1501 1503 1505 1507 1509 1511 1514 1515 1516 1517 1518 1518 1519 1519 1520 1520 1521 1521 1521 1521 1521 1521 1522 1522 1522 1521 1520 1520 1519
1495 1491 1491 1493 1492 1493 1492 1493 1493 1494 1493 1492 1495 1498 1495 1498 1502 1505 1506 1508 1510 1512 1514 1515 1516 1517 1518 1518 1519 1519 1520 1520 1520 1521 1521 1521 1521 1521 1522 1521 1521 1520 1519 1519
1491 1489 1491 1491 1490 1490 1492 1488 1490 1493 1495 1493 1494 1502 1494 1493 1498 1501 1504 1506 1508 1510 1512 1514 1515 1516 1517 1518 1518 1519 1519 1519 1520 1520 1521 1521 1521 1521 1521 1520 1520 1520 1519 1518
1489 1488 1490 1491 1488 1488 1489 1488 1489 1490 1491 1492 1492 1497 1493 1491 1495 1497 1500 1503 1506 1509 1511 1512 1514 1515 1517 1517 1518 1518 1518 1519 1519 1519 1520 1520 1521 1521 1521 1520 1519 1519 1519 1517
1486 1487 1488 1487 1486 1487 1488 1489 1488 1487 1487 1501 1493 1496 1496 1488 1493 1494 1498 1501 1505 1507 1510 1512 1513 1514 1516 1517 1517 1518 1518 1518 1519 1519 1519 1519 1520 1520 1520 1519 1519 1519 1518 1517
1487 1484 1485 1487 1487 1487 1487 1491 1499 1501 1500 1499 1488 1493 1493 1489 1490 1493 1496 1500 1503 1506 1508 1510 1512 1513 1514 1515 1516 1517 1517 1518 1518 1519 1519 1519 1519 1519 1519 1518 1518 1518 1518 1517
1491 1490 1482 1483 1484 1486 1485 1486 1502 1511 1505 1493 1490 1493 1488 1489 1492 1495 1497 1499 1502 1505 1507 1509 1511 1512 1513 1514 1515 1516 1517 1517 1518 1518 1518 1518 1518 1519 1518 1517 1517 1517 1516 1515
1485 1487 1480 1482 1483 1483 1485 1484 1480 1488 1491 1496 1490 1487 1487 1488 1492 1494 1496 1499 1501 1503 1506 1508 1509 1511 1512 1513 1514 1515 1516 1516 1517 1517 1517 1517 1517 1517 1517 1516 1516 1516 1514 1514
1479 1488 1481 1481 1483 1484 1482 1480 1484 1489 1504 1505 1494 1489 1486 1489 1490 1492 1495 1497 1500 1503 1505 1507 1508 1509 1511 1512 1513 1514 1515 1515 1515 1516 1516 1516 1516 1516 1515 1515 1514 1513 1513 1512
1477 1485 1483 1481 1484 1483 1485 1485 1486 1485 1488 1500 1502 1492 1480 1484 1487 1490 1493 1497 1499 1502 1504 1505 1507 1509 1510 1511 1512 1513 1514 1514 1514 1514 1514 1515 1515 1514 1514 1514 1513 1512 1512 1511
1479 1479 1483 1479 1477 1479 1479 1480 1482 1493 1495 1491 1493 1491 1479 1482 1485 1489 1492 1496 1499 1501 1503 1505 1506 1508 1509 1510 1511 1512 1513 1513 1513 1513 1513 1513 1513 1513 1513 1513 1512 1511 1510 1509
1480 1482 1491 1488 1484 1480 1480 1479 1479 1479 1482 1487 1492 1489 1480 1483 1486 1489 1492 1496 1498 1501 1503 1504 1505 1507 1508 1509 1510 1510 1511 1511 1512 1512 1512 1512 1512 1512 1511 1510 1510 1509 1508 1508
1482 1479 1485 1490 1483 1476 1480 1479 1479 1479 1484 1484 1482 1481 1480 1482 1485 1488 1492 1495 1497 1500 1502 1503 1504 1506 1507 1507 1508 1509 1509 1509 1510 1510 1510 1510 1509 1509 1509 1508 1508 1507 1506 1506
1480 1480 1478 1476 1474 1475 1476 1477 1477 1479 1478 1481 1478 1477 1477 1480 1484 1488 1491 1494 1496 1499 1501 1502 1503 1504 1505 1506 1506 1507 1507 1507 1508 1508 1508 1507 1507 1506 1506 1506 1505 1505 1504 1504
1480 1481 1479 1480 1474 1474 1476 1474 1474 1475 1475 1475 1475 1476 1475 1481 1484 1488 1490 1493 1495 1497 1500 1501 1502 1503 1504 1504 1505 1505 1506 1506 1506 1506 1506 1505 1505 1504 1503 1503 1502 1502 1501 1501
1478 1482 1484 1481 1473 1476 1479 1471 1471 1472 1471 1473 1475 1475 1478 1481 1484 1488 1490 1492 1494 1496 1498 1499 1500 1501 1502 1502 1503 1503 1504 1504 1504 1504 1504 1503 1503 1502 1501 1501 1500 1499 1499 1498
1481 1482 1480 1478 1482 1493 1473 1467 1468 1470 1471 1471 1473 1475 1479 1482 1485 1487 1489 1491 1493 1495 1496 1498 1498 1499 1500 1501 1501 1502 1502 1502 1502 1502 1502 1501 1501 1500 1499 1498 1497 1497 1496 1496
1478 1481 1480 1479 1480 1476 1470 1469 1470 1472 1473 1473 1474 1477 1479 1482 1484 1486 1488 1490 1492 1494 1495 1496 1497 1497 1498 1499 1499 1500 1500 1501 1501 1500 1500 1499 1499 1498 1497 1496 1496 1495 1494 1494
1477 1478 1479 1479 1484 1483 1471 1469 1472 1474 1475 1475 1477 1478 1479 1481 1480 1483 1487 1489 1491 1492 1493 1494 1494 1495 1496 1496 1497 1498 1498 1499 1499 1499 1498 1498 1497 1496 1496 1495 1494 1494 1493 1492
1477 1478 1478 1477 1478 1470 1470 1472 1474 1480 1478 1478 1478 1479 1480 1481 1482 1485 1487 1488 1489 1490 1490 1491 1492 1493 1494 1494 1495 1495 1496 1496 1497 1497 1497 1496 1496 1495 1494 1494 1493 1492 1492 1491
1473 1473 1476 1475 1478 1476 1473 1472 1475 1478 1480 1480 1480 1481 1482 1483 1484 1485 1486 1487 1488 1488 1489 1489 1489 1490 1491 1492 1492 1493 1494 1494 1494 1495 1494 1494 1494 1494 1494 1493 1492 1491 1491 1490
1471 1471 1468 1471 1474 1476 1476 1477 1479 1480 1480 1481 1481 1482 1483 1483 1484 1485 1485 1486 1486 1486 1487 1487 1487 1488 1489 1489 1489 1490 1491 1491 1492 1492 1492 1492 1492 1492 1492 1491 1491 1491 1490 1490
1472 1476 1474 1474 1472 1476 1478 1479 1480 1480 1481 1482 1482 1482 1482 1483 1483 1483 1484 1484 1485 1485 1485 1485 1486 1486 1486 1487 1487 1488 1488 1488 1489 1490 1490 1490 1490 1490 1490 1490 1490 1489 1489 1488
1474 1476 1474 1475 1475 1477 1478 1480 1480 1481 1481 1482 1482 1482 1482 1482 1482 1482 1483 1483 1483 1483 1483 1483 1484 1484 1484 1484 1485 1485 1485 1486 1487 1487 1488 1488 1488 1488 1488 1488 1488 1487 1487 1486
1475 1475 1475 1473 1476 1477 1478 1480 1480 1481 1481 1482 1481 1481 1481 1481 1481 1481 1481 1481 1481 1481 1481 1481 1482 1482 1482 1481 1482 1483 1483 1484 1485 1486 1486 1487 1487 1487 1487 1486 1486 1485 1485 1484